Location: Westerlo
(51.0830°N, 4.9170°E)
Time: 20:33:28
(UTC+02:00)

ISS - Pass Details

Date: 23 April 2026
Orbit: 414 x 424 km, 51.6° (Epoch: 12 May)

Event Time Altitude Azimuth Distance (km) Brightness Sun altitude
Exits shadow 04:44:09 18° 174° (S) 1,102 -2.0 -14.8°
Maximum altitude 04:45:20 22° 144° (SE) 982 -2.0 -14.6°
Drops below altitude 10° 04:47:59 10° 92° (E) 1,504 -0.3 -14.3°
Sets 04:50:24 0° 77° (ENE) 2,375 1.2 -14.0°
